• In Czech Republic
  • List of Countries
  • For 7 days
  • Water Temperature
  • Satellite Maps
  • Weather Map
  • Weather Widgets
  • user-avatar
    Login

    Hourly Weather Zhezqazghan

    Today, 18 August, Saturday

    Time Temperature Precipitation Wind Pressure Humidity
    00:00 +27°C° 0 mm 4 mps 738 mmHg 30%
    01:00 +27°C° 0 mm 4 mps 738 mmHg 31%
    02:00 +26°C° 0 mm 4 mps 738 mmHg 32%
    03:00 +26°C° 0 mm 4 mps 738 mmHg 32%
    04:00 +25°C° 0 mm 5 mps 738 mmHg 32%
    05:00 +27°C° 0 mm 5 mps 738 mmHg 29%
    06:00 +28°C° 0 mm 5 mps 738 mmHg 26%
    07:00 +30°C° 0 mm 5 mps 738 mmHg 23%
    08:00 +32°C° 0 mm 4 mps 738 mmHg 21%
    09:00 +33°C° 0 mm 4 mps 737 mmHg 19%
    10:00 +35°C° 0 mm 4 mps 737 mmHg 17%
    11:00 +36°C° 0 mm 4 mps 737 mmHg 16%
    12:00 +36°C° 0 mm 4 mps 737 mmHg 15%
    13:00 +37°C° 0 mm 3 mps 736 mmHg 14%
    14:00 +37°C° 0 mm 3 mps 736 mmHg 14%
    15:00 +37°C° 0 mm 3 mps 736 mmHg 14%
    16:00 +38°C° 0 mm 3 mps 736 mmHg 14%
    17:00 +36°C° 0 mm 4 mps 735 mmHg 15%
    18:00 +35°C° 0 mm 4 mps 735 mmHg 17%
    19:00 +33°C° 0 mm 4 mps 735 mmHg 18%
    20:00 +33°C° 0 mm 4 mps 735 mmHg 19%
    21:00 +31°C° 0 mm 3 mps 735 mmHg 20%
    22:00 +30°C° 0 mm 3 mps 736 mmHg 21%
    23:00 +30°C° 0 mm 3 mps 735 mmHg 22%

    Tomorrow, 19 August, Sunday

    Time Temperature Precipitation Wind Pressure Humidity
    00:00 +29°C° 0 mm 3 mps 735 mmHg 24%
    01:00 +28°C° 0 mm 3 mps 735 mmHg 25%
    02:00 +28°C° 0 mm 3 mps 735 mmHg 26%
    03:00 +27°C° 0 mm 2 mps 735 mmHg 27%
    04:00 +27°C° 0 mm 2 mps 735 mmHg 28%
    05:00 +28°C° 0 mm 2 mps 736 mmHg 26%
    06:00 +30°C° 0 mm 2 mps 736 mmHg 23%
    07:00 +31°C° 0 mm 1 mps 736 mmHg 21%
    08:00 +32°C° 0 mm 2 mps 736 mmHg 20%
    09:00 +35°C° 0 mm 2 mps 737 mmHg 18%
    10:00 +36°C° 0 mm 2 mps 737 mmHg 16%
    11:00 +36°C° 0 mm 2 mps 736 mmHg 15%
    12:00 +37°C° 0 mm 3 mps 736 mmHg 14%
    13:00 +38°C° 0 mm 3 mps 736 mmHg 13%
    14:00 +38°C° 0 mm 4 mps 736 mmHg 13%
    15:00 +38°C° 0 mm 4 mps 736 mmHg 13%
    16:00 +38°C° 0 mm 4 mps 736 mmHg 13%
    17:00 +36°C° 0 mm 4 mps 736 mmHg 14%
    18:00 +35°C° 0 mm 3 mps 736 mmHg 15%
    19:00 +34°C° 0 mm 3 mps 736 mmHg 17%
    20:00 +32°C° 0 mm 2 mps 735 mmHg 18%
    21:00 +31°C° 0 mm 2 mps 735 mmHg 19%
    22:00 +30°C° 0 mm 1 mps 735 mmHg 20%
    23:00 +30°C° 0 mm 1 mps 735 mmHg 20%

    Day after tomorrow, 20 August, Monday

    Time Temperature Precipitation Wind Pressure Humidity
    00:00 +30°C° 0 mm 1 mps 735 mmHg 20%
    01:00 +30°C° 0 mm 1 mps 735 mmHg 20%
    02:00 +29°C° 0 mm 2 mps 735 mmHg 21%
    03:00 +29°C° 0 mm 2 mps 735 mmHg 21%
    04:00 +28°C° 0 mm 3 mps 735 mmHg 21%
    05:00 +29°C° 0 mm 3 mps 735 mmHg 21%
    06:00 +30°C° 0 mm 4 mps 735 mmHg 21%
    07:00 +32°C° 0 mm 4 mps 735 mmHg 20%
    08:00 +33°C° 0 mm 4 mps 735 mmHg 19%
    09:00 +35°C° 0 mm 5 mps 735 mmHg 18%
    10:00 +36°C° 0 mm 5 mps 735 mmHg 17%
    11:00 +36°C° 0.1 mm 7 mps 735 mmHg 19%
    12:00 +35°C° 0.1 mm 8 mps 735 mmHg 21%
    13:00 +36°C° 0.1 mm 10 mps 735 mmHg 23%
    14:00 +33°C° 0.2 mm 9 mps 735 mmHg 30%
    15:00 +30°C° 0.2 mm 7 mps 736 mmHg 37%
    16:00 +28°C° 0.2 mm 6 mps 736 mmHg 43%
    17:00 +28°C° 0 mm 6 mps 736 mmHg 41%
    18:00 +28°C° 0 mm 5 mps 737 mmHg 38%
    19:00 +28°C° 0 mm 5 mps 737 mmHg 36%
    20:00 +27°C° 0 mm 6 mps 738 mmHg 40%
    21:00 +26°C° 0 mm 6 mps 738 mmHg 45%
    22:00 +24°C° 0 mm 7 mps 739 mmHg 50%
    23:00 +23°C° 0 mm 6 mps 739 mmHg 50%

    21 August, Tuesday

    Time Temperature Precipitation Wind Pressure Humidity
    00:00 +22°C° 0 mm 6 mps 740 mmHg 51%
    01:00 +21°C° 0 mm 5 mps 740 mmHg 51%
    02:00 +20°C° 0 mm 5 mps 741 mmHg 53%
    03:00 +20°C° 0 mm 5 mps 741 mmHg 54%
    04:00 +19°C° 0 mm 5 mps 742 mmHg 56%
    05:00 +19°C° 0 mm 5 mps 743 mmHg 54%
    06:00 +19°C° 0 mm 5 mps 743 mmHg 52%
    07:00 +20°C° 0 mm 5 mps 744 mmHg 50%
    08:00 +21°C° 0 mm 5 mps 744 mmHg 45%
    09:00 +22°C° 0 mm 5 mps 745 mmHg 40%
    10:00 +23°C° 0 mm 5 mps 745 mmHg 35%
    11:00 +25°C° 0 mm 5 mps 745 mmHg 31%
    12:00 +26°C° 0 mm 5 mps 744 mmHg 28%
    13:00 +27°C° 0 mm 5 mps 744 mmHg 24%
    14:00 +27°C° 0 mm 6 mps 744 mmHg 23%
    15:00 +28°C° 0 mm 6 mps 744 mmHg 22%
    16:00 +28°C° 0 mm 6 mps 744 mmHg 20%
    17:00 +27°C° 0 mm 5 mps 744 mmHg 21%
    18:00 +26°C° 0 mm 5 mps 744 mmHg 23%
    19:00 +25°C° 0 mm 4 mps 744 mmHg 24%
    20:00 +23°C° 0 mm 4 mps 744 mmHg 25%
    21:00 +22°C° 0 mm 4 mps 744 mmHg 26%
    22:00 +22°C° 0 mm 3 mps 744 mmHg 27%
    23:00 +21°C° 0 mm 3 mps 744 mmHg 28%

    22 August, Wednesday

    Time Temperature Precipitation Wind Pressure Humidity
    00:00 +21°C° 0 mm 3 mps 744 mmHg 30%
    01:00 +21°C° 0 mm 3 mps 744 mmHg 31%
    02:00 +20°C° 0 mm 3 mps 744 mmHg 32%
    03:00 +20°C° 0 mm 3 mps 744 mmHg 33%
    04:00 +20°C° 0 mm 3 mps 744 mmHg 34%
    05:00 +21°C° 0 mm 4 mps 744 mmHg 32%
    06:00 +22°C° 0 mm 4 mps 744 mmHg 30%
    07:00 +23°C° 0 mm 4 mps 744 mmHg 28%
    08:00 +25°C° 0 mm 4 mps 744 mmHg 26%
    09:00 +27°C° 0 mm 4 mps 744 mmHg 24%
    10:00 +28°C° 0 mm 4 mps 744 mmHg 21%
    11:00 +29°C° 0 mm 4 mps 744 mmHg 20%
    12:00 +30°C° 0 mm 5 mps 743 mmHg 20%
    13:00 +32°C° 0 mm 5 mps 743 mmHg 19%
    14:00 +32°C° 0 mm 5 mps 742 mmHg 19%
    15:00 +32°C° 0 mm 6 mps 742 mmHg 19%
    16:00 +32°C° 0 mm 6 mps 742 mmHg 19%
    17:00 +30°C° 0 mm 5 mps 742 mmHg 22%
    18:00 +29°C° 0 mm 5 mps 742 mmHg 25%
    19:00 +28°C° 0 mm 4 mps 742 mmHg 28%
    20:00 +27°C° 0 mm 3 mps 742 mmHg 30%
    21:00 +27°C° 0 mm 3 mps 742 mmHg 32%
    22:00 +26°C° 0 mm 3 mps 742 mmHg 34%
    23:00 +26°C° 0 mm 2 mps 742 mmHg 35%

    23 August, Thursday

    Time Temperature Precipitation Wind Pressure Humidity
    00:00 +25°C° 0 mm 2 mps 741 mmHg 37%
    01:00 +25°C° 0 mm 2 mps 741 mmHg 38%
    02:00 +25°C° 0 mm 2 mps 741 mmHg 39%
    03:00 +24°C° 0 mm 2 mps 741 mmHg 39%
    04:00 +24°C° 0 mm 2 mps 741 mmHg 39%
    05:00 +25°C° 0 mm 2 mps 742 mmHg 37%
    06:00 +27°C° 0 mm 3 mps 742 mmHg 34%
    07:00 +28°C° 0 mm 3 mps 742 mmHg 31%
    08:00 +29°C° 0 mm 3 mps 742 mmHg 29%
    09:00 +30°C° 0 mm 4 mps 742 mmHg 27%
    10:00 +33°C° 0 mm 4 mps 742 mmHg 25%
    11:00 +33°C° 0 mm 4 mps 742 mmHg 24%
    12:00 +34°C° 0 mm 5 mps 742 mmHg 23%
    13:00 +35°C° 0 mm 5 mps 741 mmHg 22%
    14:00 +35°C° 0 mm 5 mps 741 mmHg 21%
    15:00 +35°C° 0 mm 5 mps 741 mmHg 21%
    16:00 +35°C° 0 mm 5 mps 741 mmHg 21%
    17:00 +34°C° 0 mm 4 mps 741 mmHg 22%
    18:00 +33°C° 0 mm 4 mps 741 mmHg 24%
    19:00 +31°C° 0 mm 3 mps 741 mmHg 25%
    20:00 +30°C° 0 mm 3 mps 741 mmHg 26%
    21:00 +29°C° 0 mm 2 mps 741 mmHg 28%
    22:00 +28°C° 0 mm 2 mps 741 mmHg 29%
    23:00 +28°C° 0 mm 2 mps 741 mmHg 30%
    Show more